Welcome to the New NWS' Forecast!
Most changes are behind the scenes, but click here for differences you might notice.

Regional Weather Roundup (RWR)

Issued by National Weather Service (NWS)

                            
437 
ASUS44 KBMX 150410
RWRAL 
             
ALABAMA REGIONAL WEATHER ROUNDUP
NATIONAL WEATHER SERVICE BIRMINGHAM AL
1100 PM CDT TUE AUG 14 2018

NOTE: "FAIR" INDICATES FEW OR NO CLOUDS BELOW 12,000 FEET
WITH NO SIGNIFICANT WEATHER AND/OR OBSTRUCTIONS TO VISIBILITY.

THE REMARK "TC" DENOTES TEMPERATURE IN DEGREES CELSIUS.

ALZ001>011-014-016>018-020-150500-
NORTH ALABAMA
  
CITY           SKY/WX    TMP DP  RH WIND       PRES   REMARKS
MUSCLE SHOALS  FAIR      77  71  82 CALM      30.05R                  
HUNTSVILLE     FAIR      75  70  84 S3        30.04R                  
DECATUR        FAIR      70  68  93 MISG      30.04R                  
HALEYVILLE     FAIR      73  69  87 CALM      30.09R                  
GADSDEN        FAIR      72  72 100 W5        30.07R                  
$$
 
ALZ012-013-022-023-030>036-040>044-150500-
WEST CENTRAL ALABAMA
  
CITY           SKY/WX    TMP DP  RH WIND       PRES   REMARKS
TUSCALOOSA     FAIR      78  73  84 S3        30.03S                  
DEMOPOLIS        N/A     75  71  87 CALM      30.03S                  
$$
 
ALZ015-024>026-033>036-041>044-150500-
CENTRAL ALABAMA
  
CITY           SKY/WX    TMP DP  RH WIND       PRES   REMARKS
BIRMINGHAM     FAIR      80  71  74 CALM      30.07S                  
MONTGOMERY     FAIR      74  73  97 CALM      30.05S                  
SHELBY CO ARPT FAIR      76  73  91 CALM      30.06R                  
MAXWELL AFB    FAIR      73  73  98 CALM      30.04R                  
GREENVILLE     FAIR      74  70  87 CALM      30.05R                  
SELMA          MOCLDY    73  72  94 SE3       30.04S FOG              
PRATTVILLE     FAIR      71  71 100 CALM      30.05R                  
BESSEMER       FAIR      75  74  96 S3        30.07R                  
TALLADEGA      FAIR      75  73  94 CALM      30.06F                  
PELL CITY      CLEAR     73  73 100 CALM      30.06S                  
MARION         FAIR      73  73 100 CALM      30.03F                  
SYLACAUGA      FAIR      74  74 100 CALM      30.07S                  
$$
 
ALZ019-021-028-029-037-038-045>048-150500-
EAST CENTRAL ALABAMA
  
CITY           SKY/WX    TMP DP  RH WIND       PRES   REMARKS
ANNISTON       FAIR      75  70  84 CALM      30.07R                  
ALEXANDER CITY FAIR      72  72 100 CALM      30.08R                  
AUBURN         FAIR      73  72  96 CALM      30.09R                  
$$
 
ALZ051>064-150500-
SOUTHWEST ALABAMA
  
CITY           SKY/WX    TMP DP  RH WIND       PRES   REMARKS
MOBILE         FAIR      76  74  93 CALM      30.03S                  
BROOKLEY FIELD FAIR      76  76 100 NW5       30.03F                  
EVERGREEN      FAIR      75  73  93 CALM      30.05S FOG              
$$

ALZ049-050-065>069-150500-
SOUTHEAST ALABAMA
  
CITY           SKY/WX    TMP DP  RH WIND       PRES   REMARKS
DOTHAN         FAIR      77  73  87 CALM      30.09S                  
OZARK          FAIR      74  73  95 CALM      30.05S                  
TROY           FAIR      73  72  96 CALM      30.06F FOG              
EUFAULA        FAIR      74  73  97 CALM      30.05R                  
$$